This is the latest recevied weather packets stored in our database for station/object N5ZP. If no packets are shown the sender has not sent any weather packets the latest 1 day(s).
| Time | Temp. | Humidity | Pressure | Rain* | Wind** | Luminosity | Snow |
|---|---|---|---|---|---|---|---|
| 1778014535 | 29.44° C | 45% | 1002.2 hPa | 0 mm | 2.68 m/s, 332° | 591 W/m² | - |
| 1778014232 | 30.56° C | 43% | 1002 hPa | 0 mm | 1.79 m/s, 9° | 584 W/m² | - |
| 1778013930 | 30.56° C | 45% | 1002 hPa | 0 mm | 1.34 m/s, 321° | 711 W/m² | - |
| 1778013627 | 30.56° C | 45% | 1001.9 hPa | 0 mm | 0.89 m/s, 319° | 725 W/m² | - |
| 1778013323 | 31.11° C | 44% | 1001.8 hPa | 0 mm | 2.24 m/s, 306° | 714 W/m² | - |
| 1778013021 | 32.78° C | 41% | 1001.8 hPa | 0 mm | 3.13 m/s, 278° | 286 W/m² | - |
| 1778012716 | 35° C | 45% | 1001.5 hPa | 0 mm | 2.68 m/s, 267° | 685 W/m² | - |
| 1778012412 | 34.44° C | 45% | 1001.6 hPa | 0 mm | 3.58 m/s, 236° | 680 W/m² | - |
| 1778012109 | 33.89° C | 48% | 1001.6 hPa | 0 mm | 1.34 m/s, 223° | 762 W/m² | - |
| 1778011807 | 34.44° C | 49% | 1001.7 hPa | 0 mm | 1.34 m/s, 227° | 621 W/m² | - |
| 1778011505 | 34.44° C | 49% | 1001.7 hPa | 0 mm | 1.79 m/s, 176° | 730 W/m² | - |
| 1778011200 | 33.89° C | 53% | 1001.9 hPa | 0 mm | 2.24 m/s, 235° | 763 W/m² | - |
| 1778010897 | 33.33° C | 51% | 1001.9 hPa | 0 mm | 1.79 m/s, 194° | 401 W/m² | - |
| 1778010594 | 33.33° C | 52% | 1001.8 hPa | 0 mm | 2.24 m/s, 207° | 821 W/m² | - |
| 1778010292 | 33.89° C | 50% | 1002 hPa | 0 mm | 2.68 m/s, 214° | 770 W/m² | - |
| 1778010001 | 33.33° C | 50% | 1002.2 hPa | 0 mm | 1.34 m/s, 228° | 651 W/m² | - |
| 1778009690 | 33.33° C | 52% | 1001.9 hPa | 0 mm | 2.24 m/s, 200° | 821 W/m² | - |
| 1778009387 | 32.78° C | 52% | 1002 hPa | 0 mm | 1.79 m/s, 211° | 544 W/m² | - |
| 1778009085 | 32.78° C | 54% | 1002.1 hPa | 0 mm | 1.79 m/s, 211° | 256 W/m² | - |
| 1778008782 | 32.78° C | 54% | 1002.2 hPa | 0 mm | 2.24 m/s, 186° | 869 W/m² | - |
| 1778008481 | 32.78° C | 53% | 1002 hPa | 0 mm | 2.68 m/s, 209° | 415 W/m² | - |
| 1778008177 | 32.78° C | 52% | 1002 hPa | 0 mm | 1.79 m/s, 232° | 750 W/m² | - |
| 1778007872 | 32.78° C | 55% | 1001.7 hPa | 0 mm | 1.79 m/s, 200° | 747 W/m² | - |
| 1778007568 | 32.22° C | 56% | 1002 hPa | 0 mm | 1.34 m/s, 233° | 785 W/m² | - |
| 1778007266 | 31.67° C | 56% | 1001.8 hPa | 0 mm | 2.68 m/s, 201° | 810 W/m² | - |
* Rain latest hour (hover to see other rain measurements)
** Current wind speed in m/s (hover to see current wind gust speed)